[[{"header":{"parameterUnit":"m.s-1","parameterCategory":1,"la1":30.2992,"la2":30.254,"lo1":-89.0895,"lo2":-89.0443,"dy":0.0025,"dx":0.0025,"nx":19,"ny":19,"refTime":"2026-05-12T21:00:00:Z","depth":0,"parameterNumber":2,"parameterNumberName":"U-component_of_WINDS"},"data":[0,0,0,1.7532,1.7534,1.7587,1.7587,1.7658,1.7659,0,0,0,0,0,0,0,0,0,0,0,1.7518,1.7519,1.7532,1.7534,1.7587,1.7587,1.7658,1.7659,0,0,0,0,0,0,0,0,0,0,0,1.7518,1.7519,1.7519,1.7534,1.7587,1.7587,1.7658,1.7616,0,0,0,0,0,0,0,0,0,0,1.7564,1.7553,1.7518,1.7519,1.7534,1.7587,1.7587,1.7614,1.7619,1.7635,0,1.765,0,1.7655,1.7664,1.7664,0,0,0,1.7532,1.7549,1.7562,1.7519,1.7535,1.7587,1.7563,1.7617,1.7622,1.7641,1.7651,1.7653,1.7657,1.7664,1.7664,1.7762,1.7763,0,0,1.7529,1.7529,1.7558,1.7565,1.7558,1.7561,1.7564,1.762,1.763,1.7651,1.7655,1.7658,1.7665,1.7665,1.7762,1.7762,0,0,0,1.7522,1.7527,1.7538,1.7563,1.7572,1.7563,1.7566,1.7628,1.7632,1.7656,1.7659,1.7665,1.7666,1.7761,1.7762,1.7788,0,0,0,1.752,1.7522,1.7537,1.7537,1.7571,1.7601,1.7573,1.7628,1.7634,1.7658,1.7665,1.7667,1.7761,1.7762,1.7786,1.78,0,0,0,1.7514,1.7521,1.753,1.7537,1.756,1.76,1.7607,1.7629,1.7636,1.7664,1.7667,1.776,1.7762,1.7784,1.7797,1.7826,0,0,0,1.7508,1.7551,1.753,1.7581,1.756,1.7616,1.7607,1.7648,1.7675,1.7665,1.7761,1.7762,1.7784,1.7795,1.7824,1.785,1.7861,0,0,1.7562,1.7558,1.7588,1.757,1.763,1.7608,1.7671,1.7696,1.7699,1.7741,1.7743,1.7787,1.7797,1.7826,1.7922,1.7931,0,0,0,1.7605,1.7626,1.7642,1.7668,1.7689,1.7708,1.7723,1.7732,1.7768,1.772,1.7805,1.7811,1.7828,1.784,1.7848,1.7862,1.7768,1.7768,1.7767,1.7681,1.7683,1.7733,1.7742,1.7767,1.7783,1.7804,1.7819,1.7813,1.7833,1.7845,1.7904,1.7918,1.7924,1.7939,1.7859,1.7859,1.786,1.786,1.7762,1.7792,1.7785,1.783,1.7832,1.787,1.7887,1.7882,1.7917,1.7894,1.7909,1.7884,1.7933,1.7947,1.7862,1.7861,1.7861,1.7861,1.7861,1.7812,1.7827,1.7838,1.7877,1.7906,1.7914,1.7949,1.7949,1.795,1.7965,1.7978,1.7978,1.7977,1.7971,1.7971,1.7971,1.7972,1.7972,1.7972,1.7859,1.7871,1.7901,1.7927,1.7945,1.7968,1.7985,1.8002,1.8021,1.8018,1.8018,1.801,1.7938,1.7919,1.7975,1.7974,1.7974,1.7974,1.7974,1.794,1.7922,1.7968,1.7985,1.8017,1.8047,1.8047,1.8082,1.8096,1.8113,1.8103,1.8049,1.8044,1.8038,1.8023,1.8102,1.8102,1.8102,1.8102,1.7982,1.798,1.8027,1.8056,1.8083,1.8089,1.814,1.8155,1.8166,1.8175,1.8164,1.8144,1.8138,1.8137,1.8129,1.8115,1.8215,1.8215,1.8215,1.8032,1.8033,1.8077,1.8089,1.8114,1.8136,1.8184,1.8217,1.8226,1.822,1.8182,1.8177,1.8145,1.8135,1.8127,1.8114,1.8088,0,0]},{"header":{"parameterUnit":"m.s-1","parameterCategory":1,"la1":30.2992,"la2":30.254,"lo1":-89.0895,"lo2":-89.0443,"dy":0.0025,"dx":0.0025,"nx":19,"ny":19,"refTime":"2026-05-12T21:00:00:Z","depth":0,"parameterNumber":3,"parameterNumberName":"V-component_of_WINDS"},"data":[0,0,0,-1.2677,-1.2679,-1.2764,-1.2764,-1.2867,-1.2868,0,0,0,0,0,0,0,0,0,0,0,-1.2648,-1.2649,-1.2677,-1.2679,-1.2764,-1.2764,-1.2867,-1.2868,0,0,0,0,0,0,0,0,0,0,0,-1.2648,-1.2648,-1.2649,-1.2679,-1.2764,-1.2764,-1.2866,-1.2805,0,0,0,0,0,0,0,0,0,0,-1.2723,-1.2692,-1.2648,-1.2649,-1.268,-1.2764,-1.2764,-1.2802,-1.2808,-1.2826,0,-1.2839,0,-1.2855,-1.2874,-1.2874,0,0,0,-1.2682,-1.2687,-1.2713,-1.2649,-1.2681,-1.2764,-1.2726,-1.2806,-1.2813,-1.2834,-1.2841,-1.2845,-1.2857,-1.2875,-1.2875,-1.2964,-1.2964,0,0,-1.2677,-1.2661,-1.2708,-1.2718,-1.2704,-1.2724,-1.2729,-1.281,-1.2816,-1.2841,-1.2848,-1.2859,-1.2875,-1.2876,-1.2964,-1.2964,0,0,0,-1.2662,-1.2658,-1.2682,-1.2713,-1.2729,-1.2726,-1.2732,-1.2813,-1.2822,-1.2849,-1.286,-1.2876,-1.2877,-1.2964,-1.2964,-1.2961,0,0,0,-1.2659,-1.2649,-1.268,-1.2671,-1.2728,-1.2772,-1.2733,-1.2817,-1.2826,-1.2859,-1.2876,-1.2878,-1.2963,-1.2964,-1.2961,-1.2963,0,0,0,-1.2644,-1.2647,-1.2658,-1.267,-1.2706,-1.2771,-1.2785,-1.2819,-1.2833,-1.2874,-1.2878,-1.2963,-1.2964,-1.296,-1.2962,-1.2981,0,0,0,-1.2623,-1.2654,-1.2657,-1.2697,-1.2705,-1.2769,-1.2785,-1.2833,-1.2869,-1.2876,-1.2963,-1.2964,-1.296,-1.2961,-1.2981,-1.2994,-1.2999,0,0,-1.2653,-1.2657,-1.2682,-1.2687,-1.2746,-1.2757,-1.2816,-1.2864,-1.2883,-1.2936,-1.2938,-1.2961,-1.2962,-1.2981,-1.3029,-1.3032,0,0,0,-1.2686,-1.2703,-1.2723,-1.2756,-1.2793,-1.2826,-1.2866,-1.2884,-1.293,-1.2907,-1.2974,-1.2975,-1.2987,-1.2994,-1.2997,-1.3009,-1.2967,-1.2967,-1.2967,-1.2705,-1.2728,-1.277,-1.2804,-1.2836,-1.2878,-1.2906,-1.2938,-1.2951,-1.2967,-1.2982,-1.3009,-1.3016,-1.3019,-1.303,-1.2992,-1.2992,-1.2992,-1.2992,-1.2751,-1.2779,-1.2798,-1.2845,-1.287,-1.291,-1.2953,-1.2961,-1.3003,-1.2998,-1.301,-1.3003,-1.3021,-1.3033,-1.2992,-1.2992,-1.2992,-1.2992,-1.2992,-1.2766,-1.2783,-1.2805,-1.2856,-1.2893,-1.2926,-1.2965,-1.2986,-1.3006,-1.3018,-1.3037,-1.3037,-1.3039,-1.3026,-1.3026,-1.3026,-1.3026,-1.3026,-1.3026,-1.2772,-1.2796,-1.2827,-1.287,-1.2895,-1.293,-1.2973,-1.2998,-1.3031,-1.3044,-1.3044,-1.3056,-1.3019,-1.3009,-1.3028,-1.3027,-1.3027,-1.3027,-1.3027,-1.2809,-1.2804,-1.2851,-1.2876,-1.2929,-1.2964,-1.2991,-1.304,-1.3064,-1.3083,-1.3093,-1.3063,-1.3068,-1.3066,-1.3058,-1.3088,-1.3088,-1.3088,-1.3088,-1.2821,-1.2826,-1.2879,-1.2917,-1.2957,-1.2986,-1.3039,-1.3074,-1.3109,-1.3126,-1.3125,-1.3116,-1.3113,-1.3121,-1.3117,-1.311,-1.3153,-1.3153,-1.3153,-1.2845,-1.2856,-1.2896,-1.293,-1.2974,-1.3011,-1.3062,-1.3105,-1.3144,-1.3156,-1.3139,-1.3136,-1.3123,-1.3117,-1.3127,-1.3121,-1.3108,0,0]}]]